User: anonymous   Login
Location: Azat
(46.0765°N, 1.7600°E)
Time: 00:47:08
(UTC+00:00)
Language:

Cosmos 2360 Rocket - Orbit

View from above orbital plane
View from above orbital plane
View from above satellite
View from above satellite

Ground track
Ground track

The orbit data is extracted from the following two-line orbital elements,

1 25407U 98045B   20188.48649643 +.00000153 +00000-0 +10219-3 0  9992
2 25407 071.0099 217.6101 0009613 298.9848 061.0311 14.15799509133774
Epoch (UTC): 06 July 2020 11:40:33
Eccentricity: 0.0009613
inclination: 71.0099°
perigee height: 832 km
apogee height: 846 km
right ascension of ascending node: 217.6101°
argument of perigee: 298.9848°
revolutions per day: 14.15799509
mean anomaly at epoch: 61.0311°
orbit number at epoch: 13377

The dashed part of the orbit path shows where the satellite is in the earth's shadow,  

DLR